軌道要素
Epoch 2009 Oct. 16.0 TT = JDT 2455120.5
T 2009 Oct. 10.47669 TT MPC
q 2.1477627 (2000.0) P Q
n 0.14584926 Peri. 5.94681 +0.99066761 +0.13468367
a 3.5743732 Node 346.25973 -0.12840328 +0.87069939
e 0.3991219 Incl. 5.05502 -0.04571970 +0.47301467
P 6.76
From 131 observations 2002 July 11-2009 Nov. 17, mean residual 0".5.
|